Weather History for KSHL - January, 2014

Change the Weather History Date:

Monday, January 6, 2014

  Actual Average Record
Temperature  
Mean Temperature -12 °F -  
Max Temperature -7 °F 21 °F 46 °F (1990)
Min Temperature -16 °F 3 °F -31 °F (1988)
Degree Days  
Heating Degree Days 76    
Moisture  
Dew Point -23 °F    
Average Humidity 60    
Maximum Humidity 71    
Minimum Humidity 53    
Precipitation  
Precipitation 0.00 in - - ()
Sea Level Pressure  
Sea Level Pressure 30.31 in    
Wind  
Wind Speed 17 mph (WNW)    
Max Wind Speed 25 mph    
Max Gust Speed 32 mph    
Visibility 10 miles    
Events      
Averages and records for this station are not official NWS values.
T = Trace of Precipitation, MM = Missing Value Source: NWS Daily Summary

Daily Weather History Graph

Daily Weather History Graph

Search for Another Location

Airport or City:

Trip Planner

Search our weather history database for the weather conditions in past years. The results will help you decide how hot, cold, wet, or windy it might be!

Date:

Astronomy

Jan. 06, 2014 Rise Set
Actual Time 7:55 AM CST 5:03 PM CST
Civil Twilight 7:23 AM CST 5:35 PM CST
Nautical Twilight 6:47 AM CST 6:11 PM CST
Astronomical Twilight 6:13 AM CST 6:45 PM CST
Moon 11:00 AM CST (1/6) 11:49 PM CST (1/6)
Length of Visible Light 10h 12m
Length of Day
9h 08m
Waxing Crescent, 35% of the Moon is Illuminated
Jan 6
Waxing Crescent
Jan 7
First Quarter
Jan 15
Full
Jan 23
Last Quarter
Jan 30
New

Hourly Weather History & Observations

Time (CST) Temp. Windchill Dew Point Humidity Pressure Visibility Wind Dir Wind Speed Gust Speed Precip Events Conditions
12:15 AM -14.8 °F -41.8 °F -27.4 °F 53% 30.37 in 10.0 mi WNW 20.7 mph 27.6 mph N/A   Overcast
12:35 AM -14.8 °F -40.5 °F -27.4 °F 53% 30.36 in 10.0 mi NW 18.4 mph 28.8 mph N/A   Overcast
12:55 AM -16.6 °F -44.8 °F -27.4 °F 58% 30.35 in 10.0 mi NW 21.9 mph 31.1 mph N/A   Overcast
1:15 AM -16.6 °F -44.1 °F -27.4 °F 58% 30.35 in 10.0 mi NW 20.7 mph 32.2 mph N/A   Overcast
1:35 AM -16.6 °F -42.9 °F -27.4 °F 58% 30.35 in 10.0 mi WNW 18.4 mph 29.9 mph N/A   Mostly Cloudy
1:55 AM -16.6 °F -42.1 °F -27.4 °F 58% 30.36 in 10.0 mi WNW 17.3 mph - N/A   Mostly Cloudy
2:15 AM -16.6 °F -40.6 °F -27.4 °F 58% 30.36 in 10.0 mi WNW 15.0 mph - N/A   Mostly Cloudy
2:35 AM -16.6 °F -42.1 °F -27.4 °F 58% 30.36 in 10.0 mi NW 17.3 mph - N/A   Mostly Cloudy
2:55 AM -16.6 °F -42.1 °F -25.6 °F 64% 30.36 in 9.0 mi WNW 17.3 mph - N/A   Overcast
3:15 AM -16.6 °F -40.6 °F -25.6 °F 64% 30.36 in 9.0 mi WNW 15.0 mph 25.3 mph N/A   Overcast
3:35 AM -16.6 °F -43.5 °F -27.4 °F 58% 30.36 in 8.0 mi NW 19.6 mph 28.8 mph N/A   Overcast
3:55 AM -16.6 °F -44.8 °F -27.4 °F 58% 30.36 in 8.0 mi NW 21.9 mph 28.8 mph N/A   Overcast
4:15 AM -16.6 °F -44.1 °F -27.4 °F 58% 30.35 in 10.0 mi NW 20.7 mph 27.6 mph N/A   Overcast
4:35 AM -16.6 °F -43.5 °F -27.4 °F 58% 30.35 in 10.0 mi NW 19.6 mph 27.6 mph N/A   Overcast
4:55 AM -16.6 °F -43.5 °F -29.2 °F 53% 30.35 in 10.0 mi NW 19.6 mph 26.5 mph N/A   Overcast
5:15 AM -16.6 °F -40.6 °F -29.2 °F 53% 30.35 in 10.0 mi NW 15.0 mph 21.9 mph N/A   Overcast
5:35 AM -16.6 °F -42.9 °F -27.4 °F 58% 30.34 in 10.0 mi NW 18.4 mph - N/A   Overcast
5:55 AM -16.6 °F -42.9 °F -27.4 °F 58% 30.34 in 10.0 mi NW 18.4 mph 25.3 mph N/A   Scattered Clouds
6:15 AM -16.6 °F -41.4 °F -27.4 °F 58% 30.34 in 10.0 mi NW 16.1 mph 21.9 mph N/A   Partly Cloudy
6:35 AM -16.6 °F -40.6 °F -27.4 °F 58% 30.34 in 10.0 mi NW 15.0 mph - N/A   Partly Cloudy
6:55 AM -16.6 °F -41.4 °F -27.4 °F 58% 30.35 in 10.0 mi WNW 16.1 mph - N/A   Scattered Clouds
7:15 AM -16.6 °F -42.1 °F -27.4 °F 58% 30.35 in 10.0 mi NW 17.3 mph - N/A   Overcast
7:35 AM -16.6 °F -40.6 °F -27.4 °F 58% 30.34 in 10.0 mi WNW 15.0 mph - N/A   Mostly Cloudy
7:55 AM -16.6 °F -40.6 °F -27.4 °F 58% 30.34 in 10.0 mi NW 15.0 mph - N/A   Clear
8:15 AM -16.6 °F -41.4 °F -27.4 °F 58% 30.35 in 10.0 mi WNW 16.1 mph 23.0 mph N/A   Clear
8:35 AM -16.6 °F -40.6 °F -27.4 °F 58% 30.35 in 10.0 mi WNW 15.0 mph 23.0 mph N/A   Clear
8:55 AM -14.8 °F -39.8 °F -27.4 °F 53% 30.35 in 10.0 mi WNW 17.3 mph - N/A   Clear
9:15 AM -14.8 °F -39.1 °F -25.6 °F 58% 30.36 in 10.0 mi WNW 16.1 mph 23.0 mph N/A   Clear
9:35 AM -14.8 °F -38.3 °F -25.6 °F 58% 30.36 in 10.0 mi WNW 15.0 mph 24.2 mph N/A   Clear
9:55 AM -14.8 °F -42.9 °F -25.6 °F 58% 30.37 in 10.0 mi NW 23.0 mph 29.9 mph N/A   Partly Cloudy
10:15 AM -13.0 °F -41.6 °F -25.6 °F 53% 30.36 in 10.0 mi NW 25.3 mph - N/A   Partly Cloudy
10:35 AM -13.0 °F -38.8 °F -25.6 °F 53% 30.37 in 10.0 mi NW 19.6 mph - N/A   Clear
10:55 AM -13.0 °F -39.4 °F -23.8 °F 59% 30.37 in 10.0 mi NW 20.7 mph 26.5 mph N/A   Clear
11:15 AM -11.2 °F -37.0 °F -23.8 °F 54% 30.36 in 10.0 mi WNW 20.7 mph 26.5 mph N/A   Clear
11:35 AM -11.2 °F -36.4 °F -23.8 °F 54% 30.34 in 10.0 mi WNW 19.6 mph 28.8 mph N/A   Clear
11:55 AM -11.2 °F -35.8 °F -22.0 °F 59% 30.34 in 10.0 mi WNW 18.4 mph 29.9 mph N/A   Partly Cloudy
12:15 PM -11.2 °F -37.0 °F -22.0 °F 59% 30.33 in 10.0 mi WNW 20.7 mph 27.6 mph N/A   Mostly Cloudy
12:35 PM -9.4 °F -33.5 °F -22.0 °F 54% 30.32 in 10.0 mi WNW 18.4 mph 26.5 mph N/A   Scattered Clouds
12:55 PM -9.4 °F -34.1 °F -22.0 °F 54% 30.30 in 10.0 mi WNW 19.6 mph 26.5 mph N/A   Partly Cloudy
1:15 PM -9.4 °F -33.5 °F -20.2 °F 59% 30.30 in 9.0 mi WNW 18.4 mph - N/A   Partly Cloudy
1:35 PM -9.4 °F -34.1 °F -20.2 °F 59% 30.29 in 9.0 mi WNW 19.6 mph 26.5 mph N/A   Mostly Cloudy
1:55 PM -9.4 °F -34.7 °F -20.2 °F 59% 30.29 in 9.0 mi WNW 20.7 mph - N/A   Scattered Clouds
2:15 PM -7.6 °F -33.9 °F -20.2 °F 54% 30.29 in 8.0 mi West 24.2 mph - N/A   Scattered Clouds
2:35 PM -7.6 °F -30.5 °F -20.2 °F 54% 30.29 in 9.0 mi WNW 17.3 mph 27.6 mph N/A   Scattered Clouds
2:55 PM -7.6 °F -33.4 °F -20.2 °F 54% 30.30 in 8.0 mi WNW 23.0 mph - N/A   Scattered Clouds
3:15 PM -7.6 °F -32.9 °F -18.4 °F 59% 30.30 in 9.0 mi West 21.9 mph 27.6 mph N/A   Scattered Clouds
3:35 PM -7.6 °F -31.7 °F -18.4 °F 59% 30.30 in 10.0 mi West 19.6 mph 26.5 mph N/A   Partly Cloudy
3:55 PM -7.6 °F -31.7 °F -18.4 °F 59% 30.29 in 10.0 mi West 19.6 mph 26.5 mph N/A   Clear
4:15 PM -7.6 °F -29.8 °F -18.4 °F 59% 30.29 in 10.0 mi West 16.1 mph 24.2 mph N/A   Partly Cloudy
4:35 PM -7.6 °F -31.1 °F -18.4 °F 59% 30.28 in 10.0 mi WNW 18.4 mph 26.5 mph N/A   Scattered Clouds
4:55 PM -7.6 °F -29.1 °F -18.4 °F 59% 30.28 in 10.0 mi WNW 15.0 mph 21.9 mph N/A   Scattered Clouds
5:15 PM -7.6 °F -29.8 °F -18.4 °F 59% 30.28 in 10.0 mi WNW 16.1 mph - N/A   Partly Cloudy
5:35 PM -9.4 °F -28.9 °F -18.4 °F 65% 30.28 in 10.0 mi WNW 11.5 mph - N/A   Scattered Clouds
5:55 PM -9.4 °F -27.9 °F -18.4 °F 65% 30.27 in 10.0 mi West 10.4 mph - N/A   Clear
6:15 PM -9.4 °F -27.9 °F -18.4 °F 65% 30.26 in 10.0 mi WNW 10.4 mph - N/A   Partly Cloudy
6:35 PM -9.4 °F -25.6 °F -20.2 °F 59% 30.26 in 10.0 mi West 8.1 mph - N/A   Clear
6:55 PM -11.2 °F -29.0 °F -18.4 °F 70% 30.26 in 10.0 mi West 9.2 mph - N/A   Clear
7:15 PM -11.2 °F -27.8 °F -18.4 °F 70% 30.26 in 10.0 mi WNW 8.1 mph - N/A   Clear
7:35 PM -9.4 °F -25.6 °F -18.4 °F 65% 30.26 in 10.0 mi WNW 8.1 mph - N/A   Clear
7:55 PM -9.4 °F -26.8 °F -18.4 °F 65% 30.25 in 10.0 mi West 9.2 mph - N/A   Clear
8:15 PM -9.4 °F -28.9 °F -18.4 °F 65% 30.24 in 10.0 mi West 11.5 mph - N/A   Clear
8:35 PM -9.4 °F -26.8 °F -18.4 °F 65% 30.23 in 10.0 mi WNW 9.2 mph - N/A   Clear
8:55 PM -9.4 °F -24.3 °F -18.4 °F 65% 30.23 in 10.0 mi West 6.9 mph - N/A   Clear
9:15 PM -9.4 °F -27.9 °F -18.4 °F 65% 30.23 in 10.0 mi WNW 10.4 mph - N/A   Clear
9:35 PM -9.4 °F -26.8 °F -18.4 °F 65% 30.22 in 10.0 mi West 9.2 mph - N/A   Clear
9:55 PM -9.4 °F -27.9 °F -18.4 °F 65% 30.21 in 10.0 mi West 10.4 mph - N/A   Clear
10:15 PM -9.4 °F -25.6 °F -18.4 °F 65% 30.20 in 10.0 mi West 8.1 mph - N/A   Partly Cloudy
10:35 PM -9.4 °F -25.6 °F -18.4 °F 65% 30.20 in 10.0 mi West 8.1 mph - N/A   Scattered Clouds
10:55 PM -9.4 °F -22.7 °F -18.4 °F 65% 30.19 in 10.0 mi WSW 5.8 mph - N/A   Partly Cloudy
11:15 PM -7.6 °F -24.6 °F -16.6 °F 65% 30.19 in 10.0 mi WSW 9.2 mph - N/A   Partly Cloudy
11:35 PM -9.4 °F -24.3 °F -16.6 °F 71% 30.19 in 10.0 mi WSW 6.9 mph - N/A   Scattered Clouds
11:55 PM -7.6 °F -20.6 °F -16.6 °F 65% 30.19 in 10.0 mi West 5.8 mph - N/A   Mostly Cloudy